Location: Newark
(49.8348°N, 24.0280°E)
Time: 04:20:00
(UTC+00:00)

Transit 2A - Pass Details

Date: 20 January 2020
Orbit: 600 x 959 km, 66.7° (Epoch: 16 February)

Event Time Altitude Azimuth Distance (km) Brightness Sun altitude
Rises 00:48:13 0° 321° (NW) 2,873 - -50.3°
Reaches altitude 10° 00:52:40 10° 3° (N) 2,013 - -49.8°
Maximum altitude 00:53:27 10° 13° (NNE) 1,999 - -49.7°
Drops below altitude 10° 00:54:14 10° 23° (NNE) 2,035 - -49.6°
Exits shadow 00:58:22 - 62° (ENE) 2,874 9.6 -49.0°
Sets 00:58:54 0° 65° (ENE) 3,032 9.8 -48.9°
